| time (UTC) | temp F | wind direction | speed MPH | gust MPH | rain 1hr in | rain 24hr in | rain mn in | humidity % | barometer mb |
| 20260508135508 | 44 | 285 | 3.0 | 1.0 | 0.00 | 0.00 | 0.00 | 80 | 1016.6 |
| 20260508134510 | 43 | 232 | 3.0 | 1.0 | 0.00 | 0.00 | 0.00 | 81 | 1016.6 |
| 20260508133509 | 43 | 281 | 0.0 | 2.0 | 0.00 | 0.00 | 0.00 | 81 | 1016.6 |
| 20260508132510 | 42 | 288 | 4.0 | 3.0 | 0.00 | 0.00 | 0.00 | 81 | 1016.5 |
| 20260508132011 | 42 | 246 | 1.0 | 1.0 | 0.00 | 0.00 | 0.00 | 81 | 1016.4 |
| 20260508130511 | 41 | 233 | 0.0 | 1.0 | 0.00 | 0.00 | 0.00 | 81 | 1016.4 |
| 20260508130012 | 41 | 236 | 2.0 | 0.0 | 0.00 | 0.00 | 0.00 | 81 | 1016.4 |
| 20260508125513 | 41 | 307 | 0.0 | 1.0 | 0.00 | 0.00 | 0.00 | 82 | 1016.5 |
| 20260508125012 | 41 | 257 | 0.0 | 0.0 | 0.00 | 0.00 | 0.00 | 81 | 1016.4 |
| 20260508124013 | 41 | 264 | 1.0 | 1.0 | 0.00 | 0.00 | 0.00 | 81 | 1016.5 |
| 20260508123514 | 41 | 217 | 0.0 | 0.0 | 0.00 | 0.00 | 0.00 | 81 | 1016.3 |
| 20260508123015 | 41 | 266 | 1.0 | 0.0 | 0.00 | 0.00 | 0.00 | 81 | 1016.3 |
| 20260508122513 | 41 | 278 | 1.0 | 0.0 | 0.00 | 0.00 | 0.00 | 81 | 1016.4 |
| 20260508122014 | 41 | 301 | 1.0 | 2.0 | 0.00 | 0.00 | 0.00 | 80 | 1016.4 |
| 20260508121515 | 41 | 201 | 0.0 | 0.0 | 0.00 | 0.00 | 0.00 | 80 | 1016.3 |
| 20260508121016 | 41 | 232 | 0.0 | 0.0 | 0.00 | 0.00 | 0.00 | 80 | 1016.3 |
| 20260508120517 | 41 | 259 | 0.0 | 0.0 | 0.00 | 0.00 | 0.00 | 80 | 1016.3 |
| 20260508120015 | 41 | 259 | 0.0 | 0.0 | 0.00 | 0.00 | 0.00 | 80 | 1016.3 |
| 20260508115516 | 41 | 291 | 0.0 | 1.0 | 0.00 | 0.00 | 0.00 | 79 | 1016.3 |
| 20260508115017 | 41 | 311 | 1.0 | 0.0 | 0.00 | 0.00 | 0.00 | 79 | 1016.4 |
| 20260508114518 | 41 | 276 | 0.0 | 0.0 | 0.00 | 0.00 | 0.00 | 79 | 1016.4 |
| 20260508113517 | 41 | 239 | 0.0 | 1.0 | 0.00 | 0.00 | 0.00 | 79 | 1016.3 |
| 20260508113018 | 41 | 239 | 0.0 | 0.0 | 0.00 | 0.00 | 0.00 | 78 | 1016.3 |
| 20260508112519 | 41 | 329 | 0.0 | 1.0 | 0.00 | 0.00 | 0.00 | 78 | 1016.3 |
| 20260508112020 | 41 | 246 | 0.0 | 0.0 | 0.00 | 0.00 | 0.00 | 78 | 1016.3 |
| 20260508111521 | 41 | 246 | 0.0 | 0.0 | 0.00 | 0.00 | 0.00 | 77 | 1016.3 |
| 20260508111019 | 41 | 246 | 2.0 | 0.0 | 0.00 | 0.00 | 0.00 | 77 | 1016.2 |
| 20260508110520 | 41 | 260 | 0.0 | 0.0 | 0.00 | 0.00 | 0.00 | 77 | 1016.3 |
| 20260508110021 | 41 | 298 | 1.0 | 0.0 | 0.00 | 0.00 | 0.00 | 77 | 1016.4 |
| 20260508105522 | 42 | 290 | 1.0 | 0.0 | 0.00 | 0.00 | 0.00 | 76 | 1016.3 |
| 20260508104023 | 42 | 266 | 1.0 | 0.0 | 0.00 | 0.00 | 0.00 | 75 | 1016.3 |
| 20260508103524 | 42 | 284 | 0.0 | 0.0 | 0.00 | 0.00 | 0.00 | 75 | 1016.3 |
| 20260508103025 | 42 | 278 | 1.0 | 2.0 | 0.00 | 0.00 | 0.00 | 75 | 1016.3 |
| 20260508102526 | 43 | 270 | 1.0 | 0.0 | 0.00 | 0.00 | 0.00 | 75 | 1016.3 |
| 20260508101525 | 43 | 297 | 2.0 | 3.0 | 0.00 | 0.00 | 0.00 | 75 | 1016.3 |
| 20260508100527 | 43 | 322 | 2.0 | 1.0 | 0.00 | 0.00 | 0.00 | 74 | 1016.3 |
| 20260508100028 | 43 | 300 | 3.0 | 3.0 | 0.00 | 0.00 | 0.00 | 75 | 1016.3 |
| 20260508095527 | 43 | 308 | 4.0 | 2.0 | 0.00 | 0.00 | 0.00 | 75 | 1016.3 |
| 20260508094528 | 43 | 290 | 3.0 | 3.0 | 0.00 | 0.00 | 0.00 | 75 | 1016.3 |
| 20260508094030 | 43 | 304 | 3.0 | 3.0 | 0.00 | 0.00 | 0.00 | 76 | 1016.2 |
| 20260508093530 | 42 | 309 | 4.0 | 5.0 | 0.00 | 0.00 | 0.00 | 76 | 1016.2 |
| 20260508092031 | 42 | 294 | 3.0 | 2.0 | 0.00 | 0.00 | 0.00 | 76 | 1016.0 |
| 20260508091532 | 42 | 319 | 2.0 | 2.0 | 0.00 | 0.00 | 0.00 | 76 | 1016.2 |
| 20260508091032 | 42 | 298 | 3.0 | 6.0 | 0.00 | 0.00 | 0.00 | 76 | 1016.2 |
| 20260508090531 | 42 | 301 | 4.0 | 4.0 | 0.00 | 0.00 | 0.00 | 75 | 1016.3 |
| 20260508090032 | 43 | 294 | 3.0 | 4.0 | 0.00 | 0.00 | 0.00 | 75 | 1016.3 |
| 20260508085533 | 43 | 284 | 4.0 | 3.0 | 0.00 | 0.00 | 0.00 | 75 | 1016.3 |
| 20260508084033 | 43 | 273 | 2.0 | 3.0 | 0.00 | 0.00 | 0.00 | 74 | 1016.3 |
| 20260508083535 | 43 | 277 | 3.0 | 1.0 | 0.00 | 0.00 | 0.00 | 74 | 1016.3 |
| 20260508083035 | 43 | 293 | 2.0 | 5.0 | 0.00 | 0.00 | 0.00 | 74 | 1016.6 |
| 20260508081535 | 43 | 325 | 3.0 | 3.0 | 0.00 | 0.00 | 0.00 | 74 | 1016.4 |
| 20260508081036 | 43 | 281 | 2.0 | 0.0 | 0.00 | 0.00 | 0.00 | 74 | 1016.4 |
| 20260508080537 | 43 | 318 | 3.0 | 2.0 | 0.00 | 0.00 | 0.00 | 74 | 1016.4 |
| 20260508080038 | 43 | 318 | 3.0 | 2.0 | 0.00 | 0.00 | 0.00 | 73 | 1016.5 |
| 20260508075539 | 43 | 308 | 3.0 | 2.0 | 0.00 | 0.00 | 0.00 | 74 | 1016.5 |
| 20260508075038 | 43 | 293 | 3.0 | 1.0 | 0.00 | 0.00 | 0.00 | 73 | 1016.5 |
| 20260508074539 | 43 | 295 | 3.0 | 4.0 | 0.00 | 0.00 | 0.00 | 73 | 1016.6 |
| 20260508074040 | 43 | 318 | 4.0 | 3.0 | 0.00 | 0.00 | 0.00 | 73 | 1016.6 |
| 20260508073541 | 43 | 308 | 2.0 | 5.0 | 0.00 | 0.00 | 0.00 | 74 | 1016.9 |
| 20260508073042 | 43 | 291 | 2.0 | 2.0 | 0.00 | 0.00 | 0.00 | 74 | 1016.7 |
| 20260508072041 | 43 | 285 | 3.0 | 3.0 | 0.00 | 0.00 | 0.00 | 76 | 1016.9 |
| 20260508071542 | 43 | 312 | 3.0 | 3.0 | 0.00 | 0.00 | 0.00 | 77 | 1016.9 |
| 20260508071044 | 44 | 295 | 3.0 | 2.0 | 0.00 | 0.00 | 0.00 | 78 | 1016.9 |
| 20260508070545 | 44 | 315 | 4.0 | 2.0 | 0.00 | 0.00 | 0.00 | 78 | 1016.9 |
| 20260508070043 | 44 | 290 | 2.0 | 3.0 | 0.00 | 0.00 | 0.00 | 80 | 1017.0 |
| 20260508065045 | 44 | 309 | 3.0 | 3.0 | 0.00 | 0.00 | 0.00 | 82 | 1016.9 |
| 20260508064047 | 44 | 243 | 3.0 | 2.0 | 0.00 | 0.00 | 0.00 | 84 | 1016.9 |
| 20260508063546 | 44 | 181 | 0.0 | 0.0 | 0.00 | 0.00 | 0.00 | 84 | 1017.0 |
| 20260508062548 | 45 | 228 | 0.0 | 0.0 | 0.00 | 0.00 | 0.00 | 83 | 1017.0 |
| 20260508061550 | 45 | 250 | 2.0 | 3.0 | 0.00 | 0.00 | 0.00 | 83 | 1017.0 |
| 20260508061048 | 45 | 305 | 2.0 | 3.0 | 0.00 | 0.00 | 0.00 | 83 | 1017.0 |
| 20260508060549 | 45 | 249 | 2.0 | 1.0 | 0.00 | 0.00 | 0.00 | 82 | 1017.1 |
| 20260508060050 | 45 | 238 | 2.0 | 0.0 | 0.00 | 0.00 | 0.00 | 81 | 1017.0 |
| 20260508055551 | 45 | 248 | 1.0 | 1.0 | 0.00 | 0.00 | 0.00 | 81 | 1017.0 |
| 20260508055052 | 45 | 236 | 0.0 | 0.0 | 0.00 | 0.00 | 0.00 | 80 | 1017.0 |
| 20260508054551 | 46 | 233 | 3.0 | 0.0 | 0.00 | 0.00 | 0.00 | 80 | 1017.0 |
| 20260508054052 | 46 | 280 | 1.0 | 2.0 | 0.00 | 0.00 | 0.00 | 79 | 1017.0 |
| 20260508053553 | 46 | 309 | 1.0 | 3.0 | 0.00 | 0.00 | 0.00 | 79 | 1017.0 |
| 20260508053054 | 46 | 285 | 4.0 | 8.0 | 0.00 | 0.00 | 0.00 | 77 | 1017.1 |
| 20260508052053 | 46 | 309 | 3.0 | 1.0 | 0.00 | 0.00 | 0.00 | 74 | 1017.0 |
| 20260508051554 | 46 | 318 | 3.0 | 2.0 | 0.00 | 0.00 | 0.00 | 72 | 1017.0 |
| 20260508051055 | 46 | 239 | 3.0 | 3.0 | 0.00 | 0.00 | 0.00 | 71 | 1017.0 |
| 20260508050557 | 47 | 288 | 2.0 | 7.0 | 0.00 | 0.00 | 0.00 | 70 | 1017.0 |
| 20260508045556 | 47 | 305 | 3.0 | 2.0 | 0.00 | 0.00 | 0.00 | 70 | 1017.0 |
| 20260508045057 | 47 | 262 | 3.0 | 1.0 | 0.00 | 0.00 | 0.00 | 68 | 1017.0 |
| 20260508044558 | 47 | 297 | 1.0 | 1.0 | 0.00 | 0.00 | 0.00 | 67 | 1017.0 |
| 20260508044059 | 47 | 270 | 2.0 | 1.0 | 0.00 | 0.00 | 0.00 | 66 | 1017.0 |
| 20260508043600 | 47 | 287 | 2.0 | 1.0 | 0.00 | 0.00 | 0.00 | 66 | 1017.0 |
| 20260508043059 | 48 | 280 | 3.0 | 3.0 | 0.00 | 0.00 | 0.00 | 65 | 1017.1 |
| 20260508042559 | 48 | 219 | 3.0 | 1.0 | 0.00 | 0.00 | 0.00 | 65 | 1017.0 |
| 20260508042100 | 48 | 260 | 5.0 | 2.0 | 0.00 | 0.00 | 0.00 | 65 | 1017.0 |
| 20260508035603 | 49 | 335 | 3.0 | 2.0 | 0.00 | 0.00 | 0.00 | 66 | 1016.9 |
| 20260508035104 | 49 | 233 | 2.0 | 1.0 | 0.00 | 0.00 | 0.00 | 66 | 1016.9 |
| 20260508034605 | 50 | 283 | 1.0 | 5.0 | 0.00 | 0.00 | 0.00 | 68 | 1016.9 |
| 20260508034103 | 50 | 284 | 1.0 | 0.0 | 0.00 | 0.00 | 0.00 | 68 | 1016.9 |
| 20260508033604 | 50 | 280 | 1.0 | 7.0 | 0.00 | 0.00 | 0.00 | 69 | 1016.7 |
| 20260508033105 | 51 | 293 | 2.0 | 3.0 | 0.00 | 0.00 | 0.00 | 68 | 1016.7 |
| 20260508032606 | 51 | 302 | 5.0 | 4.0 | 0.00 | 0.00 | 0.00 | 67 | 1016.7 |
| 20260508032115 | 51 | 281 | 3.0 | 3.0 | 0.00 | 0.00 | 0.00 | 67 | 1016.7 |
| 20260508031606 | 52 | 229 | 2.0 | 0.0 | 0.00 | 0.00 | 0.00 | 66 | 1016.7 |
| 20260508031107 | 52 | 319 | 5.0 | 3.0 | 0.00 | 0.00 | 0.00 | 65 | 1016.7 |
| 20260508030608 | 52 | 315 | 4.0 | 3.0 | 0.00 | 0.00 | 0.00 | 64 | 1016.7 |
| 20260508030109 | 53 | 345 | 4.0 | 2.0 | 0.00 | 0.00 | 0.00 | 63 | 1016.7 |
| 20260508025610 | 53 | 293 | 3.0 | 10.0 | 0.00 | 0.00 | 0.00 | 62 | 1016.7 |
| 20260508025109 | 53 | 262 | 3.0 | 3.0 | 0.00 | 0.00 | 0.00 | 60 | 1016.7 |
| 20260508024610 | 54 | 301 | 0.0 | 5.0 | 0.00 | 0.00 | 0.00 | 58 | 1016.9 |
| 20260508024111 | 54 | 290 | 2.0 | 2.0 | 0.00 | 0.00 | 0.00 | 57 | 1016.9 |
| 20260508022612 | 55 | 298 | 5.0 | 5.0 | 0.00 | 0.00 | 0.00 | 54 | 1016.7 |
| 20260508022113 | 55 | 304 | 4.0 | 3.0 | 0.00 | 0.00 | 0.00 | 53 | 1016.7 |
| 20260508021614 | 56 | 326 | 5.0 | 5.0 | 0.00 | 0.00 | 0.00 | 52 | 1016.7 |
| 20260508020616 | 56 | 312 | 7.0 | 5.0 | 0.00 | 0.00 | 0.00 | 49 | 1016.7 |
| 20260508015117 | 57 | 326 | 6.0 | 3.0 | 0.00 | 0.00 | 0.00 | 48 | 1016.9 |
| 20260508014618 | 57 | 319 | 3.0 | 7.0 | 0.00 | 0.00 | 0.00 | 47 | 1016.9 |
| 20260508014119 | 57 | 321 | 7.0 | 7.0 | 0.00 | 0.00 | 0.00 | 46 | 1016.9 |
| 20260508013617 | 57 | 304 | 7.0 | 8.0 | 0.00 | 0.00 | 0.00 | 44 | 1017.0 |
| 20260508012619 | 58 | 326 | 6.0 | 6.0 | 0.00 | 0.00 | 0.00 | 43 | 1017.1 |
| 20260508012121 | 58 | 314 | 7.0 | 5.0 | 0.00 | 0.00 | 0.00 | 44 | 1017.1 |
| 20260508011120 | 59 | 304 | 7.0 | 9.0 | 0.00 | 0.00 | 0.00 | 43 | 1017.1 |
| 20260508010621 | 59 | 319 | 6.0 | 5.0 | 0.00 | 0.00 | 0.00 | 43 | 1017.2 |
| 20260508005624 | 60 | 349 | 7.0 | 3.0 | 0.00 | 0.00 | 0.00 | 41 | 1017.2 |
| 20260508005125 | 60 | 297 | 6.0 | 7.0 | 0.00 | 0.00 | 0.00 | 42 | 1017.2 |
| 20260508003625 | 60 | 321 | 7.0 | 9.0 | 0.00 | 0.00 | 0.00 | 41 | 1017.1 |
| 20260508003126 | 60 | 325 | 7.0 | 6.0 | 0.00 | 0.00 | 0.00 | 40 | 1017.1 |
| 20260508002126 | 61 | 312 | 9.0 | 7.0 | 0.00 | 0.00 | 0.00 | 41 | 1017.2 |
| 20260508000629 | 61 | 312 | 6.0 | 7.0 | 0.00 | 0.00 | 0.00 | 41 | 1017.1 |
| 20260507235629 | 62 | 291 | 6.0 | 8.0 | 0.00 | 0.00 | 0.00 | 39 | 1016.9 |
| 20260507235130 | 62 | 280 | 8.0 | 6.0 | 0.00 | 0.00 | 0.00 | 37 | 1017.0 |
| 20260507234631 | 62 | 321 | 7.0 | 4.0 | 0.00 | 0.00 | 0.00 | 36 | 1017.0 |
| 20260507234132 | 63 | 284 | 6.0 | 5.0 | 0.00 | 0.00 | 0.00 | 35 | 1016.9 |
| 20260507233633 | 63 | 342 | 8.0 | 7.0 | 0.00 | 0.00 | 0.00 | 34 | 1017.0 |
| 20260507232632 | 64 | 312 | 8.0 | 7.0 | 0.00 | 0.00 | 0.00 | 32 | 1016.9 |
| 20260507231634 | 64 | 339 | 4.0 | 3.0 | 0.00 | 0.00 | 0.00 | 30 | 1017.0 |
| 20260507230634 | 65 | 208 | 4.0 | 2.0 | 0.00 | 0.00 | 0.00 | 31 | 1017.1 |
| 20260507230151 | 65 | 300 | 5.0 | 6.0 | 0.00 | 0.00 | 0.00 | 30 | 1017.1 |
| 20260507225655 | 64 | 293 | 6.0 | 7.0 | 0.00 | 0.00 | 0.00 | 30 | 1017.2 |
| 20260507224136 | 65 | 291 | 6.0 | 11.0 | 0.00 | 0.00 | 0.00 | 31 | 1017.2 |
| 20260507223637 | 66 | 240 | 4.0 | 2.0 | 0.00 | 0.00 | 0.00 | 30 | 1017.3 |
| 20260507223138 | 66 | 315 | 4.0 | 4.0 | 0.00 | 0.00 | 0.00 | 33 | 1017.3 |
| 20260507222639 | 66 | 333 | 2.0 | 6.0 | 0.00 | 0.00 | 0.00 | 35 | 1017.5 |
| 20260507222140 | 66 | 273 | 5.0 | 3.0 | 0.00 | 0.00 | 0.00 | 35 | 1017.5 |
| 20260507221638 | 66 | 332 | 4.0 | 3.0 | 0.00 | 0.00 | 0.00 | 34 | 1017.5 |
| 20260507220703 | 66 | 273 | 2.0 | 8.0 | 0.00 | 0.00 | 0.00 | 35 | 1017.6 |
| 20260507220142 | 66 | 290 | 3.0 | 3.0 | 0.00 | 0.00 | 0.00 | 36 | 1017.7 |
| 20260507215141 | 66 | 309 | 4.0 | 3.0 | 0.00 | 0.00 | 0.00 | 36 | 1017.8 |
| 20260507214143 | 66 | 308 | 5.0 | 5.0 | 0.00 | 0.00 | 0.00 | 37 | 1017.7 |
| 20260507213145 | 66 | 259 | 2.0 | 3.0 | 0.00 | 0.00 | 0.00 | 36 | 1017.7 |
| 20260507212145 | 66 | 177 | 3.0 | 1.0 | 0.00 | 0.00 | 0.00 | 34 | 1017.7 |
| 20260507211147 | 66 | 281 | 4.0 | 4.0 | 0.00 | 0.00 | 0.00 | 28 | 1017.8 |
| 20260507210648 | 66 | 229 | 3.0 | 2.0 | 0.00 | 0.00 | 0.00 | 32 | 1017.7 |
| 20260507210146 | 66 | 219 | 4.0 | 2.0 | 0.00 | 0.00 | 0.00 | 31 | 1017.8 |
| 20260507205647 | 65 | 226 | 2.0 | 5.0 | 0.00 | 0.00 | 0.00 | 32 | 1017.8 |
| 20260507204649 | 65 | 307 | 5.0 | 2.0 | 0.00 | 0.00 | 0.00 | 31 | 1017.9 |
| 20260507204150 | 64 | 297 | 6.0 | 8.0 | 0.00 | 0.00 | 0.00 | 35 | 1017.9 |
| 20260507201653 | 64 | 285 | 6.0 | 7.0 | 0.00 | 0.00 | 0.00 | 33 | 1018.1 |
| 20260507201151 | 64 | 304 | 5.0 | 5.0 | 0.00 | 0.00 | 0.00 | 33 | 1018.1 |
| 20260507195654 | 63 | 343 | 4.0 | 3.0 | 0.00 | 0.00 | 0.00 | 34 | 1018.1 |
| 20260507195156 | 63 | 290 | 2.0 | 0.0 | 0.00 | 0.00 | 0.00 | 37 | 1018.1 |
| 20260507194654 | 63 | 312 | 6.0 | 5.0 | 0.00 | 0.00 | 0.00 | 35 | 1018.1 |
| 20260507194155 | 63 | 298 | 5.0 | 4.0 | 0.00 | 0.00 | 0.00 | 40 | 1018.1 |
| 20260507193657 | 62 | 253 | 6.0 | 2.0 | 0.00 | 0.00 | 0.00 | 40 | 1018.1 |
| 20260507192658 | 63 | 309 | 3.0 | 3.0 | 0.00 | 0.00 | 0.00 | 41 | 1018.1 |
| 20260507192157 | 63 | 294 | 7.0 | 7.0 | 0.00 | 0.00 | 0.00 | 42 | 1018.1 |
| 20260507191658 | 62 | 307 | 2.0 | 3.0 | 0.00 | 0.00 | 0.00 | 42 | 1018.1 |
| 20260507191159 | 62 | 274 | 3.0 | 6.0 | 0.00 | 0.00 | 0.00 | 43 | 1017.9 |
| 20260507190700 | 62 | 274 | 3.0 | 3.0 | 0.00 | 0.00 | 0.00 | 42 | 1018.1 |
| 20260507190201 | 61 | 291 | 4.0 | 2.0 | 0.00 | 0.00 | 0.00 | 46 | 1018.2 |
| 20260507185700 | 61 | 291 | 1.0 | 3.0 | 0.00 | 0.00 | 0.00 | 44 | 1018.1 |
| 20260507185201 | 61 | 301 | 6.0 | 5.0 | 0.00 | 0.00 | 0.00 | 42 | 1018.2 |
| 20260507184702 | 61 | 287 | 8.0 | 11.0 | 0.00 | 0.00 | 0.00 | 43 | 1018.1 |
| 20260507184203 | 61 | 304 | 5.0 | 3.0 | 0.00 | 0.00 | 0.00 | 45 | 1018.2 |
| 20260507183704 | 60 | 253 | 4.0 | 1.0 | 0.00 | 0.00 | 0.00 | 44 | 1018.1 |
| 20260507183203 | 60 | 253 | 4.0 | 2.0 | 0.00 | 0.00 | 0.00 | 46 | 1017.9 |
| 20260507182704 | 60 | 330 | 8.0 | 6.0 | 0.00 | 0.00 | 0.00 | 43 | 1017.9 |
| 20260507182205 | 60 | 210 | 3.0 | 1.0 | 0.00 | 0.00 | 0.00 | 45 | 1017.9 |
| 20260507181706 | 60 | 332 | 6.0 | 6.0 | 0.00 | 0.00 | 0.00 | 40 | 1017.9 |
| 20260507181207 | 59 | 273 | 6.0 | 3.0 | 0.00 | 0.00 | 0.00 | 43 | 1017.9 |
| 20260507180706 | 59 | 205 | 3.0 | 1.0 | 0.00 | 0.00 | 0.00 | 43 | 1017.9 |
| 20260507180207 | 59 | 250 | 7.0 | 3.0 | 0.00 | 0.00 | 0.00 | 42 | 1018.1 |
| 20260507175708 | 58 | 283 | 3.0 | 4.0 | 0.00 | 0.00 | 0.00 | 45 | 1017.9 |
| 20260507175209 | 58 | 274 | 4.0 | 6.0 | 0.00 | 0.00 | 0.00 | 46 | 1017.9 |
| 20260507174710 | 58 | 267 | 6.0 | 2.0 | 0.00 | 0.00 | 0.00 | 46 | 1017.9 |
| 20260507174209 | 58 | 250 | 5.0 | 1.0 | 0.00 | 0.00 | 0.00 | 46 | 1017.9 |
| 20260507173710 | 58 | 295 | 3.0 | 3.0 | 0.00 | 0.00 | 0.00 | 47 | 1017.9 |
| 20260507173211 | 58 | 212 | 2.0 | 0.0 | 0.00 | 0.00 | 0.00 | 47 | 1017.8 |
| 20260507172213 | 58 | 308 | 7.0 | 5.0 | 0.00 | 0.00 | 0.00 | 49 | 1017.7 |
| 20260507171711 | 58 | 204 | 4.0 | 1.0 | 0.00 | 0.00 | 0.00 | 49 | 1017.7 |
| 20260507171212 | 57 | 290 | 5.0 | 1.0 | 0.00 | 0.00 | 0.00 | 50 | 1017.7 |
| 20260507165715 | 58 | 267 | 6.0 | 7.0 | 0.00 | 0.00 | 0.00 | 49 | 1017.6 |
| 20260507165213 | 57 | 264 | 3.0 | 1.0 | 0.00 | 0.00 | 0.00 | 50 | 1017.6 |
| 20260507163716 | 56 | 215 | 5.0 | 3.0 | 0.00 | 0.00 | 0.00 | 54 | 1017.5 |
| 20260507162715 | 56 | 273 | 4.0 | 1.0 | 0.00 | 0.00 | 0.00 | 55 | 1017.5 |
| 20260507162216 | 55 | 283 | 4.0 | 3.0 | 0.00 | 0.00 | 0.00 | 60 | 1017.5 |
| 20260507161717 | 55 | 266 | 2.0 | 0.0 | 0.00 | 0.00 | 0.00 | 65 | 1017.3 |
| 20260507161218 | 54 | 256 | 2.0 | 3.0 | 0.00 | 0.00 | 0.00 | 67 | 1017.3 |
| 20260507160720 | 54 | 288 | 0.0 | 0.0 | 0.00 | 0.00 | 0.00 | 69 | 1017.3 |
| 20260507160218 | 53 | 267 | 3.0 | 0.0 | 0.00 | 0.00 | 0.00 | 69 | 1017.5 |
| 20260507155719 | 53 | 276 | 3.0 | 5.0 | 0.00 | 0.00 | 0.00 | 69 | 1017.5 |
| 20260507155220 | 53 | 302 | 3.0 | 3.0 | 0.00 | 0.00 | 0.00 | 71 | 1017.5 |
| 20260507153720 | 51 | 298 | 2.0 | 1.0 | 0.00 | 0.00 | 0.00 | 75 | 1017.5 |
| 20260507153221 | 50 | 264 | 4.0 | 1.0 | 0.00 | 0.00 | 0.00 | 75 | 1017.5 |
| 20260507152722 | 50 | 318 | 3.0 | 4.0 | 0.00 | 0.00 | 0.00 | 78 | 1017.3 |
| 20260507151724 | 48 | 311 | 2.0 | 4.0 | 0.00 | 0.00 | 0.00 | 81 | 1017.5 |
| 20260507151222 | 48 | 330 | 3.0 | 7.0 | 0.00 | 0.00 | 0.00 | 82 | 1017.5 |
| 20260507150723 | 48 | 274 | 2.0 | 2.0 | 0.00 | 0.00 | 0.00 | 83 | 1017.5 |
| 20260507150224 | 47 | 300 | 3.0 | 1.0 | 0.00 | 0.00 | 0.00 | 83 | 1017.3 |
| 20260507145725 | 47 | 298 | 2.0 | 5.0 | 0.00 | 0.00 | 0.00 | 86 | 1017.3 |
| 20260507145226 | 46 | 217 | 3.0 | 1.0 | 0.00 | 0.00 | 0.00 | 88 | 1017.3 |
| 20260507144225 | 45 | 233 | 0.0 | 0.0 | 0.00 | 0.00 | 0.00 | 90 | 1017.2 |
| 20260507143726 | 45 | 222 | 0.0 | 0.0 | 0.00 | 0.00 | 0.00 | 91 | 1017.5 |
| 20260507143227 | 44 | 228 | 1.0 | 0.0 | 0.00 | 0.00 | 0.00 | 92 | 1017.2 |
| 20260507142728 | 44 | 266 | 0.0 | 0.0 | 0.00 | 0.00 | 0.00 | 93 | 1017.2 |
| 20260507141727 | 44 | 257 | 1.0 | 3.0 | 0.00 | 0.00 | 0.00 | 94 | 1017.1 |
| 20260507140729 | 43 | 328 | 0.0 | 0.0 | 0.00 | 0.00 | 0.00 | 95 | 1017.1 |
| 20260507140230 | 43 | 285 | 1.0 | 0.0 | 0.00 | 0.00 | 0.00 | 95 | 1017.0 |